Simultaneous Nadir Overpasses (SNOs) Predictions

Prediction of SNOs between AQUA and METOP-A Satellite Orbit:

Table of predicted SNOs for the next 14.0 days since TLE Epoch: 6/7/2014
Index Date (AQUA) Time (AQUA) Lat,Lon (AQUA) SZA (AQUA ) Date (METOP-A) Time (METOP-A) Lat,Lon (METOP-A) SZA (METOP-A ) Distance(km) Time Diff (sec)
1 06/08/2014 08:18:40 73.50, 50.36 50.63 06/08/2014 08:17:30 73.47, 48.91 50.65 46.21 70
2 06/08/2014 09:08:13 -73.90,-142.86 128.96 06/08/2014 09:08:03 -73.88,-142.79 128.97 2.61 10
3 06/08/2014 09:57:42 73.96, 24.63 51.12 06/08/2014 09:58:42 73.95, 24.70 51.09 2.88 60
4 06/11/2014 03:53:01 73.81, 116.12 50.74 06/11/2014 03:51:50 73.80, 116.08 50.74 1.92 71
5 06/11/2014 04:42:28 -73.89, -76.41 129.18 06/11/2014 04:42:30 -73.87, -76.42 129.20 2.57 2
6 06/11/2014 05:31:57 73.97, 91.06 50.90 06/11/2014 05:33:09 73.93, 91.06 50.86 3.71 72
7 06/13/2014 23:27:16 73.84,-177.50 50.60 06/13/2014 23:26:16 73.83,-177.44 50.60 2.08 60
8 06/14/2014 00:16:43 -73.92, -10.02 129.32 06/14/2014 00:16:56 -73.91, -9.93 129.33 2.96 13
9 06/14/2014 01:06:19 74.36, 156.60 51.15 06/14/2014 01:07:27 74.36, 158.53 51.09 57.96 68
10 06/16/2014 19:01:29 73.84,-111.06 50.49 06/16/2014 19:00:42 73.81,-111.09 50.47 3.22 47
11 06/16/2014 19:50:56 -73.91, 56.43 129.44 06/16/2014 19:51:22 -73.89, 56.43 129.46 1.78 26
12 06/19/2014 14:35:43 73.86, -44.67 50.46 06/19/2014 14:35:08 73.84, -44.63 50.44 2.82 35
13 06/19/2014 15:25:10 -73.93, 122.83 129.48 06/19/2014 15:25:48 -73.93, 122.91 129.49 2.29 38




NCC Satellite Simultaneous Nadir Overpasses (SNOs) Prediction Service
